GFSNW_850_spd_000.txt.gz
Wind_Speed
24 22 26 19 20 26 17 10 5 5 4 11 14 16 19 15 17 27 25 17 20 19 16 16 14 12 9 9 16 24 22 15 15 19 27 29 26 25 26 17 27 20 22 18
24 23 22 18 17 18 19 10 15 10 11 8 13 15 15 16 21 21 21 27 22 19 18 20 17 16 13 10 10 14 20 18 14 19 19 18 27 31 27 26 20 26 20 18
24 22 21 16 14 15 13 9 4 9 11 19 12 16 13 19 18 19 25 21 20 23 23 19 10 12 13 11 17 7 6 18 22 16 22 21 25 26 30 30 23 23 26 21
24 20 17 14 13 13 8 9 5 2 6 7 5 11 14 14 15 15 16 21 22 19 20 21 20 17 10 10 9 6 6 15 16 21 21 19 24 28 28 31 32 29 23 29
19 19 19 17 14 14 9 7 7 6 15 16 14 12 13 14 14 9 16 16 19 21 20 19 17 21 18 17 14 15 13 11 10 17 22 24 23 26 27 26 27 31 33 31
21 20 20 17 16 14 8 9 10 9 11 8 7 11 13 9 6 12 18 15 11 9 8 9 11 12 15 14 12 13 14 13 10 16 15 20 24 27 27 29 27 24 25 28
22 22 21 18 17 17 18 10 8 5 10 10 8 10 11 13 14 15 21 16 13 4 12 17 18 20 21 19 19 18 10 13 12 12 1 13 15 19 23 26 28 24 20 17
24 21 20 18 16 20 19 17 13 6 6 13 14 15 16 15 17 17 19 20 19 17 15 7 11 13 17 23 22 21 18 14 10 11 14 11 18 8 17 22 25 28 21 20
21 21 17 16 15 17 19 20 18 10 5 9 11 12 12 10 9 12 12 11 15 11 7 10 15 16 15 16 18 21 19 16 13 8 14 18 3 12 17 14 15 23 25 17
17 16 16 15 13 13 16 18 18 19 7 22 19 16 13 10 11 6 4 7 7 6 8 12 12 16 18 15 20 19 16 16 19 11 10 8 11 13 6 9 8 21 21 24
15 14 14 14 12 12 15 19 18 20 10 26 28 26 24 15 14 7 8 7 4 4 5 8 10 10 11 15 18 23 18 15 11 7 9 15 10 2 1 15 17 8 13 17
14 13 13 13 12 14 14 12 11 15 20 17 23 25 23 24 29 24 10 8 7 3 4 3 5 4 3 12 12 3 14 14 8 11 8 5 7 1 3 7 4 9 15 23
13 9 11 12 11 14 11 13 9 10 13 26 27 21 13 25 31 20 17 9 6 4 5 5 3 6 4 6 4 14 4 7 7 9 5 9 10 8 8 5 9 19 18 23
10 10 10 9 9 7 7 10 9 9 8 7 5 3 5 7 15 28 32 21 5 7 12 4 3 4 7 1 3 4 6 4 9 5 6 14 16 12 9 6 9 16 19 20
12 6 5 5 6 7 6 8 11 12 8 9 20 25 3 7 20 18 23 23 22 16 7 4 2 5 4 2 3 4 10 6 3 6 11 12 14 12 4 13 16 16 20 24
5 4 6 5 8 4 5 3 3 7 10 8 4 10 2 1 11 19 18 18 14 14 8 2 5 10 6 3 2 7 8 6 3 5 8 19 21 12 8 15 17 18 22 21
4 4 6 6 7 7 5 4 7 2 6 4 5 4 1 3 9 9 11 14 9 11 10 4 3 5 1 2 3 10 8 12 16 19 24 17 17 16 13 11 15 17 17 15
7 7 7 8 10 8 4 4 7 7 5 5 3 4 4 7 8 8 9 10 9 7 4 4 3 1 4 4 8 11 15 18 26 24 25 20 19 21 9 9 11 15 11 7
9 7 7 3 1 2 4 11 4 7 6 5 3 3 2 3 3 6 9 9 5 3 1 2 4 3 4 6 14 16 17 13 16 16 17 17 18 14 10 11 11 10 8 6
9 6 3 0 1 5 6 1 4 4 4 5 4 5 5 7 3 7 8 7 5 2 2 7 3 5 15 16 17 19 20 18 14 20 17 20 12 13 12 15 11 8 7 7
7 6 4 6 6 2 3 2 3 3 3 5 5 6 7 3 3 1 3 2 7 3 3 2 3 2 4 12 16 18 24 23 18 14 13 15 8 7 8 7 5 4 6 7
8 9 8 6 3 3 4 3 4 3 3 3 5 10 7 5 4 5 3 1 2 5 3 3 3 4 7 11 9 12 12 11 12 12 8 5 5 6 4 3 3 4 4 4
4 3 3 5 3 2 5 8 4 3 8 7 11 6 4 5 5 4 2 2 4 6 3 3 4 14 16 12 10 13 13 12 10 9 7 6 6 7 5 4 5 4 3 4
4 6 5 5 4 4 2 6 6 9 12 16 11 8 4 5 3 3 3 4 1 4 4 4 6 13 14 12 10 11 10 10 9 8 7 8 10 11 8 7 5 6 6 6
4 4 4 4 8 7 7 8 7 8 12 10 4 5 6 5 3 4 4 4 5 6 3 4 13 12 13 13 14 12 10 8 6 6 6 7 7 8 9 8 7 7 8 8
4 5 2 12 8 15 19 18 15 15 13 5 2 2 3 6 4 7 7 4 5 3 3 9 11 9 9 10 10 11 9 8 7 7 7 9 11 8 6 7 9 9 7 6
6 6 15 14 13 14 17 18 19 16 7 4 3 5 6 4 5 4 4 2 3 3 6 7 9 7 7 8 8 9 8 8 7 6 5 5 6 8 5 7 9 10 9 7

GFSNW_850_spd_006.txt.gz
Wind_Speed
26 26 26 25 24 25 18 19 9 7 7 15 16 18 27 32 31 41 30 29 31 30 29 27 27 29 27 27 21 26 26 17 19 26 25 28 29 29 27 17 21 19 20 16
25 24 23 22 21 18 16 16 24 27 24 15 15 23 30 31 29 29 32 32 30 26 30 27 29 27 27 29 27 25 20 21 16 24 24 25 30 28 25 26 21 21 19 16
25 23 22 20 17 16 11 10 6 18 22 31 24 23 26 27 34 26 30 24 29 31 28 28 27 27 29 23 22 8 8 18 26 18 21 18 25 30 28 26 18 21 22 20
25 23 21 17 16 15 10 7 8 18 10 19 8 16 22 21 25 26 24 16 19 19 21 26 27 28 29 26 26 14 15 16 21 28 29 25 25 29 29 27 26 22 21 27
25 23 21 18 15 13 11 7 11 15 25 29 23 12 19 20 25 19 19 12 22 20 19 15 17 21 24 24 25 19 22 17 18 24 25 27 24 27 28 29 29 27 26 25
24 22 20 17 14 15 10 14 19 10 14 18 16 17 20 17 23 23 22 18 17 17 16 27 33 34 36 28 21 22 20 17 16 21 25 23 24 26 22 23 24 25 22 23
23 20 19 16 15 17 16 16 12 5 6 14 16 22 21 16 23 15 18 25 4 22 22 31 34 32 28 24 25 25 20 20 16 17 19 24 17 19 24 23 18 20 23 21
21 19 18 17 16 16 20 19 15 7 4 14 18 25 18 23 26 27 21 28 22 14 10 7 13 12 20 21 24 19 15 18 14 15 17 15 19 18 12 9 13 16 17 17
19 16 17 16 16 12 16 19 20 11 5 11 24 16 20 16 17 14 20 23 22 6 5 3 2 4 11 16 16 11 16 5 9 13 17 23 20 7 6 4 9 10 11 11
16 14 15 15 15 12 15 19 15 13 5 18 22 17 16 14 11 9 20 14 6 10 6 6 4 7 11 11 18 11 11 9 13 12 14 15 7 4 6 10 2 7 8 10
13 12 14 14 15 11 12 15 10 18 10 23 26 28 27 24 18 8 9 10 9 8 12 10 7 10 9 12 17 10 8 9 11 11 11 15 15 18 18 4 3 6 10 12
13 12 15 12 9 11 11 15 10 13 21 20 25 23 29 30 26 24 17 8 9 6 4 1 4 7 5 12 12 17 13 14 11 12 11 9 8 11 8 8 8 15 16 16
14 13 11 12 12 10 12 15 15 15 16 26 24 24 25 26 30 28 24 15 12 7 7 3 2 5 4 5 10 17 16 12 15 15 13 4 14 11 10 14 22 22 25 27
15 14 10 10 10 10 12 13 11 11 10 6 18 12 21 14 16 23 24 24 11 6 4 5 3 3 3 4 7 8 6 10 12 14 15 15 14 12 13 21 21 22 25 28
16 13 12 12 10 10 12 15 15 13 13 6 21 26 23 16 16 13 17 20 19 17 5 1 2 3 3 3 3 3 5 4 4 1 13 17 15 14 17 23 24 23 25 24
16 15 14 13 11 10 10 5 2 4 9 6 6 18 16 13 18 16 16 18 17 12 4 1 4 10 7 3 2 4 11 6 9 5 6 36 30 25 24 27 25 24 23 20
19 18 16 14 12 11 10 6 6 14 10 5 5 6 8 6 13 16 15 16 16 9 4 4 4 7 6 1 2 6 7 9 20 28 21 18 22 18 22 25 25 24 23 21
17 14 13 12 13 12 8 7 9 7 6 4 3 5 7 13 17 10 15 13 7 4 4 3 5 2 3 2 1 5 13 21 15 17 22 20 21 21 25 26 23 26 23 21
13 11 10 9 5 5 5 8 16 7 6 3 3 3 5 14 6 8 8 6 4 9 4 3 1 0 2 6 5 7 10 11 25 23 22 17 19 19 19 16 16 20 21 22
12 9 3 4 2 10 14 6 3 4 6 7 4 10 3 3 9 6 8 14 5 3 2 1 2 2 7 16 11 10 11 10 18 24 21 19 19 16 14 14 15 18 14 13
8 6 4 13 9 5 5 4 5 5 4 6 7 12 7 6 4 5 3 2 2 3 2 1 2 2 3 8 14 16 20 18 20 18 17 20 19 16 14 14 16 17 10 12
8 9 9 9 4 2 3 5 6 3 3 5 5 6 13 2 5 8 5 3 2 4 1 3 2 2 6 10 13 18 22 22 20 17 11 8 6 9 8 7 5 7 6 7
4 5 6 8 3 4 4 5 4 3 4 4 6 9 7 10 11 1 2 4 3 8 3 2 2 3 9 8 16 21 19 15 14 9 7 8 12 9 9 9 6 6 7 7
4 6 5 4 3 3 4 10 7 12 6 20 7 2 5 5 2 1 5 4 5 3 3 4 2 8 10 12 5 9 9 7 8 9 12 15 20 17 11 11 10 10 12 10
5 5 4 5 9 14 17 21 10 18 20 17 11 7 12 4 1 2 3 4 5 5 4 2 3 2 5 6 8 9 10 12 13 14 16 16 13 17 17 16 14 11 8 10
4 3 11 17 17 20 26 27 23 36 9 8 4 8 5 7 5 7 8 3 5 3 2 3 4 7 9 11 11 11 13 11 14 14 11 14 16 12 13 12 11 11 10 9
7 11 17 18 18 16 22 23 27 26 26 11 6 8 8 6 5 5 4 3 4 10 12 12 11 13 6 10 12 18 11 10 9 9 13 8 12 12 12 13 8 9 10 4

GFSNW_850_spd_009.txt.gz
Wind_Speed
27 27 26 26 26 27 23 12 5 11 23 9 12 13 16 26 25 33 25 21 26 26 26 28 23 24 22 21 25 22 19 15 14 23 19 20 24 12 13 8 9 6 9 15
27 26 26 23 23 20 22 13 20 18 8 5 8 12 21 24 23 22 23 25 23 23 27 25 24 26 27 27 18 21 14 18 11 14 14 19 19 21 12 19 4 13 6 17
27 27 25 22 20 18 16 8 5 12 26 12 13 12 12 16 24 20 21 19 20 15 18 17 17 25 20 27 23 23 16 12 26 18 13 6 9 21 22 16 15 14 23 13
27 25 23 21 16 15 12 5 6 16 7 13 19 10 11 17 13 15 23 13 17 20 16 20 12 15 23 22 27 13 6 18 18 17 17 18 25 15 25 22 20 15 13 19
26 25 22 18 14 11 11 5 6 8 17 20 17 17 12 16 15 9 16 16 18 18 6 18 18 19 17 11 16 20 12 10 10 8 12 21 21 19 19 26 23 19 17 20
25 25 19 16 11 13 9 11 11 7 7 11 11 12 16 16 16 12 16 18 12 14 16 18 21 28 29 23 25 24 12 5 4 10 7 8 15 27 20 11 23 21 19 19
24 23 20 15 11 14 16 16 12 4 6 9 12 21 22 18 19 13 17 23 17 20 9 17 24 27 26 23 22 17 19 15 8 6 6 8 10 9 12 14 7 13 10 12
22 20 19 15 12 12 17 18 17 5 6 12 17 18 18 20 23 18 20 21 29 26 5 5 7 10 16 18 19 16 15 11 6 5 8 3 8 11 4 7 10 1 8 8
19 18 16 15 14 12 16 16 14 13 6 7 18 16 20 14 9 11 17 24 23 19 5 1 2 3 6 8 16 11 14 7 3 3 6 14 5 5 9 5 2 6 10 8
17 16 15 13 13 11 14 16 11 11 7 24 16 10 12 17 8 5 14 11 15 16 8 5 3 5 3 6 7 6 5 3 4 5 6 4 4 5 6 4 4 4 11 8
18 16 14 16 14 11 10 13 12 15 13 26 28 30 25 22 18 5 9 8 6 4 4 5 4 5 6 5 9 10 4 9 7 4 4 3 8 8 6 3 11 15 17 15
21 18 17 14 12 12 14 17 10 12 19 24 33 28 33 32 30 27 4 7 2 5 4 4 3 2 2 0 3 2 3 7 4 8 5 3 14 10 1 14 20 19 19 18
20 20 16 14 13 12 12 16 16 15 18 26 22 21 18 21 26 23 24 18 15 8 8 3 2 4 2 3 3 6 6 7 5 8 8 3 8 11 21 19 19 17 19 22
20 18 16 15 15 13 14 16 14 15 10 6 14 16 28 20 22 25 32 31 24 11 12 5 1 3 5 1 3 1 1 7 4 6 5 9 25 17 29 30 24 24 27 28
22 20 18 16 16 16 16 16 15 17 13 4 19 38 8 15 16 20 29 29 24 15 3 1 2 4 3 3 3 3 2 3 2 2 11 8 6 25 27 31 27 28 30 29
24 21 20 17 15 14 13 6 1 6 6 7 4 17 16 18 13 15 20 21 16 18 5 2 2 5 3 3 2 2 10 18 7 3 21 27 27 32 29 34 31 30 30 26
23 20 17 15 13 13 7 6 5 13 12 5 5 5 9 21 13 12 10 13 17 12 3 1 2 4 11 3 3 6 16 6 16 13 24 25 28 21 24 30 31 34 33 32
22 18 17 16 15 15 11 8 8 3 6 5 3 4 7 15 8 5 13 12 11 4 1 2 1 4 4 3 6 12 11 11 14 17 21 26 13 27 25 25 26 32 32 31
16 15 13 10 5 3 7 10 12 13 7 3 3 3 3 8 5 2 6 4 1 1 2 2 4 0 2 5 15 10 18 11 25 19 23 23 18 15 5 13 20 27 28 27
13 10 4 4 8 13 16 5 2 2 4 5 4 7 4 5 2 1 5 5 3 3 4 6 1 1 10 18 4 8 16 19 18 19 17 15 14 10 13 17 18 24 17 21
11 7 4 12 13 6 1 2 3 2 2 6 8 9 6 6 3 3 5 1 5 1 1 1 2 3 6 16 8 8 12 18 14 16 16 14 13 14 16 12 12 15 17 20
11 14 12 10 5 3 2 3 3 3 3 5 5 5 3 5 9 4 4 2 3 2 1 3 3 3 8 12 13 16 14 15 11 8 5 3 4 7 9 12 13 14 13 14
8 7 5 5 5 4 5 3 4 3 4 7 10 3 5 7 9 3 1 2 3 2 3 3 3 2 8 11 15 12 10 7 12 16 11 10 6 10 16 12 16 14 15 15
4 5 8 4 4 3 6 8 5 14 13 24 13 4 2 1 2 1 3 4 2 4 4 4 2 9 9 8 5 14 14 10 7 14 25 17 21 18 19 18 17 18 18 16
4 5 3 5 16 22 23 27 19 18 16 16 7 5 2 2 3 5 6 5 5 5 3 1 3 5 2 5 7 5 9 12 23 25 22 20 21 25 27 25 16 12 15 14
6 3 9 20 18 18 27 27 27 33 29 12 13 6 5 7 4 6 7 4 5 3 3 11 17 19 23 19 17 18 19 21 24 23 19 19 21 21 18 14 18 14 12 16
5 12 20 13 17 20 27 23 29 25 31 10 5 7 8 3 5 5 4 3 4 10 13 11 12 10 12 14 28 11 19 26 23 20 21 23 25 28 27 25 23 18 16 13

GFSNW_850_spd_015.txt.gz
Wind_Speed
28 27 27 26 26 26 24 14 4 19 24 8 5 4 13 15 11 14 3 3 4 3 5 3 2 5 5 18 7 5 6 3 14 17 7 19 19 16 9 7 12 6 7 11
26 25 25 23 23 21 22 18 9 12 10 4 5 7 7 15 13 6 5 5 5 6 2 2 3 5 7 19 10 6 7 4 2 6 4 3 10 12 13 10 4 21 9 7
26 25 24 22 20 17 14 7 4 6 6 7 4 5 4 10 19 6 12 3 3 4 4 5 4 4 3 18 8 12 3 3 4 5 5 4 7 11 20 17 11 17 20 8
27 24 21 20 17 14 10 3 3 2 4 5 5 7 5 6 9 9 15 4 7 4 2 2 2 1 7 10 7 6 4 3 3 5 13 14 15 12 25 20 23 16 18 12
24 22 20 18 14 13 6 5 3 3 7 6 5 5 5 5 5 4 4 8 12 2 4 4 4 5 2 5 5 6 3 4 6 5 9 10 15 20 25 24 23 18 17 8
23 22 19 16 14 11 5 6 10 7 5 3 2 3 2 9 15 7 12 9 11 5 3 11 17 21 18 10 3 3 2 1 5 5 8 11 11 25 20 23 13 17 19 9
22 21 19 15 12 10 10 13 12 6 4 6 6 10 15 13 13 13 21 22 3 7 22 24 15 14 19 17 12 13 3 4 1 5 6 8 10 9 17 18 8 9 5 10
22 21 20 17 12 9 13 14 11 4 5 9 11 13 9 14 16 15 15 22 8 18 16 4 4 4 2 13 19 18 16 5 2 3 3 9 12 4 9 13 14 7 12 10
22 20 20 18 15 12 15 14 12 11 6 5 9 3 11 8 6 5 5 11 22 8 2 3 5 4 3 4 5 20 17 17 5 3 4 6 0 18 25 14 17 9 10 11
23 21 19 18 16 13 14 13 9 11 8 17 15 7 5 7 5 5 9 8 5 0 1 3 4 5 4 4 4 4 6 7 14 11 5 8 9 25 16 5 8 7 10 8
26 23 21 18 15 13 14 16 12 14 12 26 28 28 22 16 11 5 6 10 1 3 2 2 3 4 6 5 6 5 9 10 6 8 8 8 16 12 9 10 24 5 16 13
30 27 23 20 17 15 14 19 12 14 18 26 32 36 41 36 37 22 11 9 6 3 1 1 2 3 4 5 4 4 6 7 8 6 6 2 8 12 24 20 14 18 11 19
31 29 25 19 19 17 15 21 19 18 18 27 19 18 13 12 16 21 13 12 12 9 12 3 2 5 4 3 5 5 6 5 8 3 6 3 15 22 24 23 16 10 10 17
33 30 26 21 16 17 17 22 22 18 11 6 12 13 24 23 17 22 30 29 13 14 11 6 3 3 5 3 4 3 6 6 13 5 5 2 14 14 23 15 11 15 17 22
36 31 25 22 19 15 18 22 25 22 15 5 15 34 1 5 8 13 24 29 29 21 6 4 3 5 4 4 2 4 8 7 7 7 6 3 8 8 10 14 17 17 24 26
35 30 23 19 16 13 14 7 5 7 10 6 4 12 7 5 10 13 17 30 25 17 9 3 7 12 5 3 3 4 8 13 11 3 12 18 23 11 9 23 23 25 26 26
35 29 19 13 9 10 12 8 7 10 9 4 5 5 7 14 10 2 7 16 13 14 7 7 10 7 2 3 4 8 17 19 11 20 19 16 27 21 13 22 27 31 31 29
36 23 18 15 13 13 17 14 15 16 12 6 3 4 6 8 6 2 4 10 9 4 5 2 2 2 3 5 10 20 24 17 20 29 10 32 37 26 23 23 28 33 32 29
33 20 14 4 1 4 9 17 10 10 8 3 3 2 3 8 4 3 2 3 2 4 3 2 1 2 5 9 17 28 23 9 14 22 23 29 38 22 21 24 27 31 27 25
27 11 5 3 7 18 13 2 2 4 4 5 3 3 3 4 3 2 2 1 2 2 3 3 2 3 22 20 13 17 4 26 25 22 14 22 27 25 24 25 22 25 26 23
24 13 5 14 12 6 3 4 4 3 2 4 6 11 4 5 3 1 2 1 0 2 1 2 2 3 6 12 2 14 26 25 22 20 18 20 26 24 21 19 18 20 21 21
19 13 12 8 4 2 2 3 3 2 3 4 4 6 9 4 5 2 1 1 3 3 2 2 5 6 25 22 27 33 26 27 28 23 23 21 20 19 16 13 11 16 19 18
10 8 7 7 6 5 5 5 3 4 3 5 9 3 2 3 1 2 2 2 4 3 3 2 3 14 19 19 26 35 36 27 25 25 21 18 16 15 19 19 18 17 19 20
7 9 7 5 5 5 4 12 8 21 18 19 10 4 4 5 3 3 5 5 4 5 5 5 5 21 32 33 33 38 34 32 31 28 26 29 31 28 27 26 24 23 24 22
6 7 6 5 13 19 25 21 20 30 26 10 2 5 7 4 4 4 4 5 5 6 5 5 18 27 35 38 37 33 35 35 38 38 38 34 39 37 35 32 31 25 20 23
6 10 7 19 11 20 30 35 28 38 32 5 9 4 5 7 4 7 8 4 4 4 4 17 22 23 29 34 29 40 39 38 39 38 36 35 33 35 35 33 31 30 27 25
8 8 22 20 19 15 22 29 29 25 27 7 5 7 7 3 5 5 4 5 7 14 20 29 30 33 32 38 37 35 34 39 37 36 36 34 30 26 28 27 25 27 29 29